Time[GMT],gps_lat[degrees_north](-3m),gps_lon[degrees_west](-3m),gps_2_lat[degrees_north](-3m),gps_2_lon[degrees_west](-3m)
2018-10-01 16:00,43.179565430,-70.427398682,43.18,-70.43
2018-10-01 17:00,43.179615021,-70.427436829,43.18,-70.43
2018-10-01 18:00,43.179615021,-70.427352905,,
2018-10-01 19:00,43.179550171,-70.427299500,,
2018-10-01 20:00,43.179500580,-70.427253723,,
2018-10-01 21:00,43.179515839,-70.427330017,,
2018-10-01 22:00,43.179481506,-70.427330017,,
2018-10-01 23:00,43.179450989,-70.427268982,,
2018-10-02 00:00,43.179466248,-70.427314758,43.18,-70.43
2018-10-02 01:00,43.179500580,-70.427368164,43.18,-70.43
2018-10-02 02:00,43.179668427,-70.427398682,,
2018-10-02 03:00,43.179599762,-70.427368164,,
2018-10-02 04:00,43.179634094,-70.427398682,,
2018-10-02 05:00,43.180065155,-70.427352905,,
2018-10-02 06:00,43.179748535,-70.427299500,,
2018-10-02 07:00,43.179683685,-70.427146912,,
2018-10-02 08:00,43.179565430,-70.427314758,,
2018-10-02 09:00,43.179534912,-70.427314758,,
2018-10-02 11:00,43.179450989,-70.427268982,43.18,-70.43
2018-10-02 12:00,43.179450989,-70.427299500,43.18,-70.43
2018-10-02 13:00,43.179466248,-70.427383423,43.18,-70.43
2018-10-02 14:00,43.179534912,-70.427413940,43.18,-70.43
2018-10-02 15:00,43.179550171,-70.427482605,43.18,-70.43
2018-10-02 16:00,43.179565430,-70.427482605,43.18,-70.43
2018-10-02 17:00,43.179599762,-70.427551270,43.18,-70.43
2018-10-02 18:00,43.179649353,-70.427482605,43.18,-70.43
2018-10-02 19:00,43.179515839,-70.427352905,43.18,-70.43
2018-10-02 20:00,,,43.18,-70.43
2018-10-02 21:00,43.179550171,-70.427352905,43.18,-70.43
2018-10-02 22:00,43.179515839,-70.427352905,43.18,-70.43
2018-10-02 23:00,43.179466248,-70.427284241,43.18,-70.43
2018-10-03 00:00,43.179416656,-70.427268982,43.18,-70.43
2018-10-03 01:00,43.179450989,-70.427253723,43.18,-70.43
2018-10-03 02:00,,,43.18,-70.43
2018-10-03 03:00,43.179481506,-70.427330017,43.18,-70.43
2018-10-03 04:00,43.179481506,-70.427330017,43.18,-70.43
2018-10-03 05:00,43.179481506,-70.427352905,43.18,-70.43
2018-10-03 06:00,43.179515839,-70.427368164,43.18,-70.43
2018-10-03 07:00,43.179500580,-70.427330017,43.18,-70.43
2018-10-03 08:00,43.179515839,-70.427314758,43.18,-70.43
2018-10-03 09:00,43.179481506,-70.427284241,43.18,-70.43
2018-10-03 10:00,43.179466248,-70.427253723,43.18,-70.43
2018-10-03 11:00,,,43.18,-70.43
2018-10-03 12:00,43.179851532,-70.427101135,43.18,-70.43
2018-10-03 13:00,43.179450989,-70.427200317,43.18,-70.43
2018-10-03 14:00,43.179450989,-70.427215576,43.18,-70.43
2018-10-03 15:00,43.179515839,-70.427215576,43.18,-70.43
2018-10-03 16:00,,,43.18,-70.43
2018-10-03 17:00,43.179149628,-70.426483154,43.18,-70.43
2018-10-03 18:00,43.179565430,-70.427284241,43.18,-70.43
2018-10-03 19:00,43.179599762,-70.427268982,43.18,-70.43
2018-10-03 20:00,43.179565430,-70.427230835,43.18,-70.43
2018-10-03 21:00,43.179599762,-70.427215576,43.18,-70.43
2018-10-03 22:00,43.179615021,-70.427116394,43.18,-70.43
2018-10-03 23:00,43.179565430,-70.427131653,43.18,-70.43
2018-10-04 00:00,43.179615021,-70.427101135,43.18,-70.43
2018-10-04 01:00,43.179500580,-70.427047729,43.18,-70.43
2018-10-04 02:00,,,43.18,-70.43
2018-10-04 03:00,43.179565430,-70.427116394,43.18,-70.43
2018-10-04 04:00,43.179584503,-70.427185059,43.18,-70.43
2018-10-04 05:00,43.179634094,-70.427215576,43.18,-70.43
2018-10-04 06:00,43.179668427,-70.427200317,43.18,-70.43
2018-10-04 07:00,43.179649353,-70.427253723,43.18,-70.43
2018-10-04 08:00,43.179733276,-70.427230835,43.18,-70.43
2018-10-04 09:00,43.179733276,-70.427200317,43.18,-70.43
2018-10-04 10:00,43.179718018,-70.427169800,43.18,-70.43
2018-10-04 11:00,43.179649353,-70.427101135,43.18,-70.43
2018-10-04 12:00,43.179649353,-70.427001953,43.18,-70.43
2018-10-04 13:00,43.179615021,-70.427032471,43.18,-70.43
2018-10-04 14:00,43.179668427,-70.426948547,43.18,-70.43
2018-10-04 15:00,43.179748535,-70.426986694,43.18,-70.43
2018-10-04 16:00,43.179767609,-70.427032471,43.18,-70.43
2018-10-04 17:00,43.179817200,-70.427085876,43.18,-70.43
2018-10-04 18:00,43.179866791,-70.427169800,43.18,-70.43
2018-10-04 19:00,43.179851532,-70.427146912,43.18,-70.43
2018-10-04 20:00,43.179832458,-70.427185059,43.18,-70.43
2018-10-04 21:00,43.179851532,-70.427169800,43.18,-70.43
2018-10-04 22:00,43.179851532,-70.427131653,43.18,-70.43
2018-10-04 23:00,43.179817200,-70.427116394,43.18,-70.43
2018-10-05 00:00,43.179748535,-70.427116394,43.18,-70.43
2018-10-05 01:00,43.179748535,-70.427047729,43.18,-70.43
2018-10-05 02:00,43.179649353,-70.427062988,43.18,-70.43
2018-10-05 03:00,43.179683685,-70.427047729,43.18,-70.43
2018-10-05 04:00,43.179649353,-70.427047729,43.18,-70.43
2018-10-05 05:00,43.179615021,-70.427101135,43.18,-70.43
2018-10-05 06:00,43.179634094,-70.427169800,43.18,-70.43
2018-10-05 07:00,43.179599762,-70.427299500,43.18,-70.43
2018-10-05 08:00,43.179515839,-70.427413940,43.18,-70.43
2018-10-05 09:00,43.179466248,-70.427368164,43.18,-70.43
2018-10-05 10:00,43.179450989,-70.427368164,43.18,-70.43
2018-10-05 11:00,43.179431915,-70.427352905,43.18,-70.43
2018-10-05 12:00,43.179351807,-70.427352905,43.18,-70.43
2018-10-05 13:00,43.179351807,-70.427368164,43.18,-70.43
2018-10-05 14:00,43.179332733,-70.427398682,43.18,-70.43
2018-10-05 15:00,43.179332733,-70.427452087,43.18,-70.43
2018-10-05 16:00,43.179317474,-70.427413940,43.18,-70.43
2018-10-05 17:00,43.179401398,-70.427452087,43.18,-70.43
2018-10-05 18:00,43.179416656,-70.427452087,43.18,-70.43
2018-10-05 19:00,43.179450989,-70.427452087,43.18,-70.43
2018-10-05 20:00,43.179500580,-70.427436829,43.18,-70.43
2018-10-05 21:00,,,,
2018-10-05 22:00,43.179481506,-70.427352905,43.18,-70.43
2018-10-05 23:00,43.179481506,-70.427299500,43.18,-70.43
2018-10-06 00:00,43.179416656,-70.427230835,43.18,-70.43
2018-10-06 01:00,43.179431915,-70.427268982,43.18,-70.43
2018-10-06 02:00,43.179351807,-70.427230835,43.17,-70.42
2018-10-06 03:00,43.179332733,-70.427169800,43.18,-70.43
2018-10-06 04:00,43.179332733,-70.427169800,43.18,-70.43
2018-10-06 05:00,43.179332733,-70.427146912,43.18,-70.43
2018-10-06 06:00,43.179332733,-70.427169800,43.18,-70.43
2018-10-06 07:00,43.179351807,-70.427230835,43.18,-70.43
2018-10-06 08:00,43.179382324,-70.427268982,43.18,-70.43
2018-10-06 09:00,43.179382324,-70.427299500,43.18,-70.43
2018-10-06 10:00,43.179382324,-70.427314758,43.18,-70.43
2018-10-06 11:00,43.179401398,-70.427299500,43.18,-70.43
2018-10-06 12:00,43.179401398,-70.427268982,43.18,-70.43
2018-10-06 13:00,43.179317474,-70.427253723,43.18,-70.43
2018-10-06 14:00,43.179431915,-70.427185059,43.18,-70.43
2018-10-06 15:00,43.179367065,-70.427200317,43.18,-70.43
2018-10-06 16:00,43.179332733,-70.427169800,43.18,-70.43
2018-10-06 17:00,43.179351807,-70.427200317,43.18,-70.43
2018-10-06 18:00,43.179382324,-70.427215576,43.18,-70.43
2018-10-06 19:00,43.179416656,-70.427230835,43.18,-70.43
2018-10-06 20:00,43.179481506,-70.427230835,43.18,-70.43
2018-10-06 21:00,43.179565430,-70.427268982,43.18,-70.43
2018-10-06 22:00,43.179615021,-70.427268982,43.18,-70.43
2018-10-06 23:00,43.179649353,-70.427268982,43.18,-70.43
2018-10-07 00:00,43.179615021,-70.427200317,43.18,-70.43
2018-10-07 01:00,43.179615021,-70.427101135,43.18,-70.43
2018-10-07 02:00,43.179534912,-70.427032471,43.18,-70.43
2018-10-07 03:00,43.179500580,-70.426986694,43.18,-70.43
2018-10-07 04:00,43.179515839,-70.426849365,43.17,-70.42
2018-10-07 05:00,43.179431915,-70.426864624,43.18,-70.43
2018-10-07 06:00,43.179615021,-70.426849365,43.18,-70.43
2018-10-07 07:00,43.179615021,-70.426849365,43.18,-70.43
2018-10-07 08:00,43.179649353,-70.426902771,43.18,-70.43
2018-10-07 09:00,43.179649353,-70.426902771,43.18,-70.43
2018-10-07 10:00,43.179698944,-70.426933289,43.18,-70.43
2018-10-07 11:00,43.179634094,-70.426948547,43.18,-70.43
2018-10-07 12:00,43.179634094,-70.427032471,43.18,-70.43
2018-10-07 13:00,43.179515839,-70.426986694,43.18,-70.43
2018-10-07 14:00,43.179565430,-70.426948547,43.18,-70.43
2018-10-07 15:00,43.179466248,-70.427017212,43.18,-70.43
2018-10-07 16:00,43.179416656,-70.427032471,43.18,-70.43
2018-10-07 17:00,43.179382324,-70.427001953,43.18,-70.43
2018-10-07 18:00,43.179382324,-70.427085876,43.18,-70.43
2018-10-07 19:00,43.179382324,-70.427146912,43.18,-70.43
2018-10-07 20:00,43.179431915,-70.427284241,43.18,-70.43
2018-10-07 21:00,43.179466248,-70.427268982,43.18,-70.43
2018-10-07 22:00,43.179481506,-70.427398682,43.18,-70.43
2018-10-07 23:00,43.179500580,-70.427398682,43.18,-70.43
2018-10-08 00:00,43.179500580,-70.427436829,43.18,-70.43
2018-10-08 01:00,43.179481506,-70.427413940,43.18,-70.43
2018-10-08 02:00,43.179431915,-70.427352905,43.18,-70.43
2018-10-08 03:00,43.179431915,-70.427284241,43.18,-70.43
2018-10-08 04:00,43.179367065,-70.427215576,43.17,-70.42
2018-10-08 05:00,43.179317474,-70.427268982,43.18,-70.43
2018-10-08 06:00,43.179298401,-70.427268982,43.18,-70.43
2018-10-08 07:00,43.179283142,-70.427268982,43.18,-70.43
2018-10-08 08:00,43.179298401,-70.427284241,43.18,-70.43
2018-10-08 09:00,43.179332733,-70.427368164,43.18,-70.43
2018-10-08 10:00,43.179351807,-70.427383423,43.18,-70.43
2018-10-08 11:00,43.179382324,-70.427436829,43.18,-70.43
2018-10-08 12:00,43.179401398,-70.427352905,43.18,-70.43
2018-10-08 13:00,43.179401398,-70.427352905,43.18,-70.43
2018-10-08 14:00,43.179367065,-70.427268982,43.18,-70.43
2018-10-08 15:00,43.179367065,-70.427215576,43.18,-70.43
2018-10-08 16:00,43.179317474,-70.427146912,43.18,-70.43
2018-10-08 17:00,43.179298401,-70.427146912,43.18,-70.43
2018-10-08 18:00,43.179317474,-70.427116394,43.18,-70.43
2018-10-08 19:00,43.179298401,-70.427062988,43.18,-70.43
2018-10-08 20:00,43.179332733,-70.427101135,43.18,-70.43
2018-10-08 21:00,43.179332733,-70.427131653,43.18,-70.43
2018-10-08 22:00,43.179431915,-70.427185059,43.18,-70.43
2018-10-08 23:00,43.179382324,-70.427200317,43.18,-70.43
2018-10-09 00:00,43.179431915,-70.427169800,43.18,-70.43
2018-10-09 01:00,43.179416656,-70.427131653,43.17,-70.42
2018-10-09 02:00,43.179431915,-70.427085876,43.18,-70.43
2018-10-09 03:00,43.179431915,-70.427047729,43.18,-70.43
2018-10-09 04:00,43.179401398,-70.426986694,43.18,-70.43
2018-10-09 05:00,43.179367065,-70.426948547,43.18,-70.43
2018-10-09 06:00,43.179401398,-70.426948547,43.18,-70.43
2018-10-09 07:00,43.179382324,-70.426879883,43.18,-70.43
2018-10-09 08:00,43.179450989,-70.426849365,43.18,-70.43
2018-10-09 09:00,43.179500580,-70.426834106,43.18,-70.43
2018-10-09 10:00,43.179550171,-70.426864624,43.18,-70.43
2018-10-09 11:00,43.179599762,-70.426918030,43.18,-70.43
2018-10-09 12:00,43.179599762,-70.426933289,43.18,-70.43
2018-10-09 13:00,43.179599762,-70.426948547,43.18,-70.43
2018-10-09 14:00,43.179599762,-70.426902771,43.18,-70.43
2018-10-09 15:00,43.179565430,-70.426918030,43.18,-70.43
2018-10-09 16:00,43.179534912,-70.426918030,43.18,-70.43
2018-10-09 17:00,43.179481506,-70.426902771,43.18,-70.43
2018-10-09 18:00,43.179450989,-70.426864624,43.18,-70.43
2018-10-09 19:00,43.179416656,-70.426879883,43.18,-70.43
2018-10-09 20:00,43.179500580,-70.426834106,43.18,-70.43
2018-10-09 21:00,43.179534912,-70.426879883,43.18,-70.43
2018-10-09 22:00,,,43.18,-70.43
2018-10-09 23:00,43.179584503,-70.426986694,43.18,-70.43
2018-10-10 00:00,43.179565430,-70.426986694,43.18,-70.43
2018-10-10 01:00,43.179615021,-70.427001953,43.18,-70.43
2018-10-10 02:00,43.179599762,-70.426986694,43.18,-70.43
2018-10-10 03:00,43.179615021,-70.426963806,43.18,-70.43
2018-10-10 04:00,43.179634094,-70.426864624,43.18,-70.43
2018-10-10 05:00,43.179534912,-70.426918030,43.18,-70.43
2018-10-10 06:00,43.179466248,-70.426879883,43.18,-70.43
2018-10-10 07:00,43.179367065,-70.426849365,43.18,-70.43
2018-10-10 08:00,43.179500580,-70.426834106,43.18,-70.43
2018-10-10 09:00,43.179481506,-70.426803589,43.18,-70.43
2018-10-10 10:00,43.179565430,-70.426902771,43.18,-70.43
2018-10-10 11:00,43.179634094,-70.427001953,43.18,-70.43
2018-10-10 12:00,43.179416656,-70.426818848,43.18,-70.43
2018-10-10 13:00,43.179584503,-70.426963806,43.18,-70.43
2018-10-10 14:00,43.179584503,-70.427032471,43.18,-70.43
2018-10-10 15:00,43.179615021,-70.426986694,43.18,-70.43
2018-10-10 16:00,43.179615021,-70.426963806,43.18,-70.43
2018-10-10 17:00,43.179584503,-70.426918030,43.18,-70.43
2018-10-10 18:00,43.179481506,-70.426918030,43.18,-70.43
2018-10-10 19:00,43.179466248,-70.426864624,43.18,-70.43
2018-10-10 20:00,43.179950714,-70.426300049,43.18,-70.43
2018-10-10 21:00,43.179500580,-70.426902771,43.18,-70.43
2018-10-10 22:00,43.179534912,-70.427017212,43.18,-70.43
2018-10-10 23:00,43.179584503,-70.426963806,43.18,-70.43
2018-10-11 00:00,43.179431915,-70.427169800,43.18,-70.43
2018-10-11 01:00,43.179351807,-70.426963806,43.18,-70.43
2018-10-11 02:00,,,43.18,-70.43
2018-10-11 03:00,43.179450989,-70.427452087,43.18,-70.43
2018-10-11 04:00,43.179668427,-70.427619934,43.18,-70.43
2018-10-11 05:00,43.179416656,-70.427413940,43.18,-70.43
2018-10-11 06:00,43.179416656,-70.427398682,43.18,-70.43
2018-10-11 07:00,43.179351807,-70.427330017,43.18,-70.43
2018-10-11 08:00,43.179534912,-70.427062988,43.18,-70.43
2018-10-11 09:00,43.179367065,-70.427436829,43.18,-70.43
2018-10-11 10:00,,,43.18,-70.43
2018-10-11 11:00,43.179481506,-70.427482605,43.18,-70.43
2018-10-11 12:00,43.179466248,-70.427551270,43.18,-70.43
2018-10-11 13:00,43.179466248,-70.427551270,43.18,-70.43
2018-10-11 14:00,43.179718018,-70.427299500,43.18,-70.43
2018-10-11 15:00,43.179450989,-70.427383423,43.18,-70.43
2018-10-11 16:00,,,43.18,-70.43
2018-10-11 17:00,43.179351807,-70.427200317,43.18,-70.43
2018-10-11 18:00,43.179367065,-70.427131653,43.18,-70.43
2018-10-11 19:00,43.179332733,-70.427116394,43.18,-70.43
2018-10-11 20:00,43.179317474,-70.427085876,43.18,-70.43
2018-10-11 21:00,43.179317474,-70.427200317,43.18,-70.43
2018-10-11 22:00,43.179283142,-70.427314758,,
2018-10-11 23:00,43.179248810,-70.427215576,43.18,-70.43
2018-10-12 00:00,43.179317474,-70.427352905,43.18,-70.43
2018-10-12 01:00,43.179351807,-70.427398682,43.18,-70.43
2018-10-12 02:00,43.179416656,-70.427383423,43.18,-70.43
2018-10-12 03:00,43.179481506,-70.427368164,43.18,-70.43
2018-10-12 04:00,43.179450989,-70.427299500,43.18,-70.43
2018-10-12 05:00,43.179401398,-70.427253723,43.18,-70.43
2018-10-12 06:00,43.179431915,-70.427200317,43.18,-70.43
2018-10-12 07:00,43.179401398,-70.427169800,43.18,-70.43
2018-10-12 08:00,43.179416656,-70.427085876,43.18,-70.43
2018-10-12 09:00,43.179332733,-70.427085876,43.18,-70.43
2018-10-12 10:00,,,43.18,-70.43
2018-10-12 11:00,43.179515839,-70.427017212,43.18,-70.43
2018-10-12 12:00,43.179317474,-70.427169800,43.18,-70.43
2018-10-12 13:00,43.179351807,-70.427253723,43.18,-70.43
2018-10-12 14:00,43.179367065,-70.427352905,43.18,-70.43
2018-10-12 15:00,43.179450989,-70.427413940,43.18,-70.43
2018-10-12 16:00,43.179401398,-70.427352905,43.18,-70.43
2018-10-12 17:00,43.179416656,-70.427330017,43.18,-70.43
2018-10-12 18:00,43.179416656,-70.427230835,43.18,-70.43
2018-10-12 19:00,43.179382324,-70.427146912,43.18,-70.43
2018-10-12 20:00,43.179382324,-70.427032471,43.18,-70.43
2018-10-12 21:00,43.179382324,-70.426933289,43.18,-70.43
2018-10-12 22:00,43.179382324,-70.426864624,43.18,-70.43
2018-10-12 23:00,43.179401398,-70.426902771,43.18,-70.43
2018-10-13 00:00,43.179431915,-70.426849365,43.18,-70.43
2018-10-13 01:00,43.179416656,-70.426963806,43.18,-70.43
2018-10-13 02:00,43.179466248,-70.427001953,43.18,-70.43
2018-10-13 03:00,43.179481506,-70.427001953,43.18,-70.43
2018-10-13 04:00,43.179534912,-70.426948547,43.18,-70.43
2018-10-13 05:00,43.179481506,-70.426986694,43.18,-70.43
2018-10-13 06:00,43.179481506,-70.426933289,43.18,-70.43
2018-10-13 07:00,43.179450989,-70.426948547,43.18,-70.43
2018-10-13 08:00,43.179450989,-70.426933289,43.18,-70.43
2018-10-13 09:00,43.179431915,-70.426918030,43.18,-70.43
2018-10-13 10:00,43.179416656,-70.426933289,43.18,-70.43
2018-10-13 11:00,43.179431915,-70.426879883,43.18,-70.43
2018-10-13 12:00,,,43.18,-70.43
2018-10-13 13:00,43.179534912,-70.426986694,43.18,-70.43
2018-10-13 14:00,43.179550171,-70.426933289,43.18,-70.43
2018-10-13 15:00,43.179599762,-70.426879883,43.18,-70.43
2018-10-13 16:00,43.179599762,-70.426864624,43.18,-70.43
2018-10-13 17:00,43.179565430,-70.426902771,43.18,-70.43
2018-10-13 18:00,43.179500580,-70.426879883,43.18,-70.43
2018-10-13 19:00,43.179450989,-70.426864624,43.18,-70.43
2018-10-13 20:00,43.179317474,-70.426933289,43.18,-70.43
2018-10-13 21:00,43.179450989,-70.426864624,43.18,-70.43
2018-10-13 22:00,43.179431915,-70.426818848,43.18,-70.43
2018-10-13 23:00,43.179431915,-70.426849365,43.18,-70.43
2018-10-14 00:00,43.179382324,-70.426879883,43.18,-70.43
2018-10-14 01:00,43.179481506,-70.426918030,43.18,-70.43
2018-10-14 02:00,,,43.18,-70.43
2018-10-14 03:00,,,43.18,-70.43
2018-10-14 04:00,43.179500580,-70.426879883,43.18,-70.43
2018-10-14 05:00,43.179481506,-70.426879883,43.18,-70.43
2018-10-14 06:00,43.179450989,-70.426879883,43.18,-70.43
2018-10-14 07:00,43.179466248,-70.426849365,43.18,-70.43
2018-10-14 08:00,43.179466248,-70.426818848,43.18,-70.43
2018-10-14 09:00,43.179450989,-70.426803589,43.18,-70.43
2018-10-14 10:00,43.179431915,-70.426803589,43.18,-70.43
2018-10-14 11:00,43.179450989,-70.426818848,43.18,-70.43
2018-10-14 12:00,43.179450989,-70.426780701,43.18,-70.43
2018-10-14 13:00,43.179466248,-70.426849365,43.18,-70.43
2018-10-14 14:00,43.179431915,-70.426902771,43.18,-70.43
2018-10-14 15:00,43.179431915,-70.426963806,43.18,-70.43
2018-10-14 16:00,43.179248810,-70.427032471,43.18,-70.43
2018-10-14 17:00,43.179466248,-70.426963806,43.18,-70.43
2018-10-14 18:00,43.179450989,-70.426933289,43.18,-70.43
2018-10-14 19:00,43.179416656,-70.426933289,43.18,-70.43
2018-10-14 20:00,43.179466248,-70.426918030,43.18,-70.43
2018-10-14 21:00,43.179481506,-70.426879883,43.18,-70.43
2018-10-14 22:00,43.179481506,-70.426879883,43.18,-70.43
2018-10-14 23:00,43.179450989,-70.426849365,43.18,-70.43
2018-10-15 00:00,43.179481506,-70.426849365,43.18,-70.43
2018-10-15 01:00,43.179481506,-70.426864624,43.18,-70.43
2018-10-15 02:00,43.179183960,-70.426696777,43.18,-70.43
2018-10-15 03:00,43.179550171,-70.426879883,43.18,-70.43
2018-10-15 04:00,43.179985046,-70.426483154,43.18,-70.43
2018-10-15 05:00,,,43.18,-70.43
2018-10-15 06:00,43.179565430,-70.426536560,43.18,-70.43
2018-10-15 07:00,43.179466248,-70.426963806,43.18,-70.43
2018-10-15 08:00,43.179466248,-70.426933289,43.18,-70.43
2018-10-15 09:00,43.179466248,-70.426933289,43.18,-70.43
2018-10-15 10:00,43.179450989,-70.426986694,43.18,-70.43
2018-10-15 11:00,43.179466248,-70.426986694,43.18,-70.43
2018-10-15 12:00,43.179500580,-70.426963806,43.18,-70.43
2018-10-15 13:00,43.179534912,-70.426948547,43.18,-70.43
2018-10-15 14:00,43.179550171,-70.426963806,43.18,-70.43
2018-10-15 15:00,43.179634094,-70.426963806,43.18,-70.43
2018-10-15 16:00,43.179698944,-70.427017212,43.18,-70.43
2018-10-15 17:00,43.179733276,-70.427116394,43.18,-70.43
2018-10-15 18:00,43.179767609,-70.427131653,43.18,-70.43
2018-10-15 19:00,43.179668427,-70.426902771,43.18,-70.43
2018-10-15 20:00,43.180034637,-70.427047729,43.18,-70.43
2018-10-15 21:00,43.180015564,-70.427001953,43.18,-70.43
2018-10-15 22:00,43.179950714,-70.426933289,43.18,-70.43
2018-10-15 23:00,43.179916382,-70.426864624,43.18,-70.43
2018-10-16 00:00,43.179950714,-70.426902771,43.18,-70.43
2018-10-16 01:00,43.179882050,-70.426849365,43.18,-70.43
2018-10-16 02:00,43.179950714,-70.426849365,43.18,-70.43
2018-10-16 03:00,43.179931641,-70.426864624,43.18,-70.43
2018-10-16 04:00,43.179965973,-70.426864624,43.18,-70.43
2018-10-16 05:00,43.179683685,-70.426582336,43.18,-70.43
2018-10-16 06:00,43.179767609,-70.426582336,43.18,-70.43
2018-10-16 07:00,43.179649353,-70.426651001,43.18,-70.43
2018-10-16 08:00,43.179550171,-70.426612854,43.18,-70.43
2018-10-16 09:00,43.179481506,-70.426429749,43.18,-70.43
2018-10-16 10:00,43.179450989,-70.426300049,43.18,-70.43
2018-10-16 11:00,43.179450989,-70.426353455,43.18,-70.43
2018-10-16 12:00,43.179401398,-70.426353455,43.18,-70.43
2018-10-16 13:00,43.179481506,-70.426330566,43.18,-70.43
2018-10-16 14:00,43.179500580,-70.426315308,43.18,-70.43
2018-10-16 15:00,43.179500580,-70.426330566,43.18,-70.43
2018-10-16 16:00,,,43.18,-70.43
2018-10-16 17:00,43.179565430,-70.426399231,43.18,-70.43
2018-10-16 18:00,43.179565430,-70.426383972,43.18,-70.43
2018-10-16 19:00,43.179565430,-70.426414490,43.18,-70.43
2018-10-16 20:00,43.179584503,-70.426414490,43.18,-70.43
2018-10-16 21:00,43.179584503,-70.426399231,43.18,-70.43
2018-10-16 22:00,43.179584503,-70.426399231,43.18,-70.43
2018-10-16 23:00,43.179565430,-70.426399231,43.18,-70.43
2018-10-17 00:00,43.179599762,-70.426414490,43.18,-70.43
2018-10-17 01:00,43.179599762,-70.426368713,43.18,-70.43
2018-10-17 02:00,43.179634094,-70.426330566,43.18,-70.43
2018-10-17 03:00,43.179599762,-70.426353455,43.18,-70.43
2018-10-17 04:00,43.179615021,-70.426383972,43.18,-70.43
2018-10-17 05:00,43.179634094,-70.426452637,43.18,-70.43
2018-10-17 06:00,43.179634094,-70.426429749,43.18,-70.43
2018-10-17 07:00,43.179649353,-70.426498413,43.18,-70.43
2018-10-17 08:00,43.179683685,-70.426498413,43.18,-70.43
2018-10-17 09:00,43.179649353,-70.426536560,43.18,-70.43
2018-10-17 10:00,43.179634094,-70.426513672,43.18,-70.43
2018-10-17 11:00,43.179634094,-70.426467896,43.18,-70.43
2018-10-17 12:00,43.179668427,-70.426467896,43.18,-70.43
2018-10-17 13:00,43.179698944,-70.426452637,43.18,-70.43
2018-10-17 14:00,43.179649353,-70.426414490,43.18,-70.43
2018-10-17 15:00,43.179668427,-70.426452637,43.18,-70.43
2018-10-17 16:00,43.179683685,-70.426452637,43.18,-70.43
2018-10-17 17:00,43.179718018,-70.426498413,43.18,-70.43
2018-10-17 18:00,43.179683685,-70.426452637,43.18,-70.43
2018-10-17 19:00,43.179718018,-70.426498413,43.18,-70.43
2018-10-17 20:00,43.179615021,-70.426368713,43.18,-70.43
2018-10-17 21:00,43.179500580,-70.426315308,43.18,-70.43
2018-10-17 22:00,43.179615021,-70.426368713,43.18,-70.43
2018-10-17 23:00,43.179584503,-70.426383972,43.18,-70.43
2018-10-18 00:00,43.179550171,-70.426399231,43.18,-70.43
2018-10-18 01:00,43.179550171,-70.426383972,43.18,-70.43
2018-10-18 02:00,43.179550171,-70.426383972,43.18,-70.43
2018-10-18 03:00,43.179615021,-70.426353455,43.18,-70.43
2018-10-18 04:00,43.179550171,-70.426269531,43.18,-70.43
2018-10-18 05:00,43.179550171,-70.426330566,43.18,-70.43
2018-10-18 06:00,43.179599762,-70.426353455,43.18,-70.43
2018-10-18 07:00,43.179550171,-70.426330566,43.18,-70.43
2018-10-18 08:00,43.179634094,-70.426368713,43.18,-70.43
2018-10-18 09:00,43.179565430,-70.426414490,43.18,-70.43
2018-10-18 10:00,43.179534912,-70.426315308,43.18,-70.43
2018-10-18 11:00,43.179550171,-70.426353455,43.18,-70.43
2018-10-18 12:00,43.179500580,-70.426330566,43.18,-70.43
2018-10-18 13:00,43.179416656,-70.426383972,43.18,-70.43
2018-10-18 14:00,43.179416656,-70.426330566,43.18,-70.43
2018-10-18 15:00,43.179466248,-70.426429749,43.18,-70.43
2018-10-18 16:00,43.179431915,-70.426399231,43.18,-70.43
2018-10-18 17:00,43.179450989,-70.426383972,43.18,-70.43
2018-10-18 18:00,43.179534912,-70.426467896,43.18,-70.43
2018-10-18 19:00,43.179500580,-70.426399231,43.18,-70.43
2018-10-18 20:00,43.179481506,-70.426452637,43.18,-70.43
2018-10-18 21:00,43.179500580,-70.426483154,43.18,-70.43
2018-10-18 22:00,43.179584503,-70.426429749,43.18,-70.43
2018-10-18 23:00,43.179500580,-70.426399231,43.18,-70.43
2018-10-19 00:00,43.179565430,-70.426452637,43.18,-70.43
2018-10-19 01:00,43.179515839,-70.426467896,43.18,-70.43
2018-10-19 02:00,43.179534912,-70.426429749,43.18,-70.43
2018-10-19 03:00,43.179565430,-70.426452637,43.18,-70.43
2018-10-19 04:00,43.179584503,-70.426399231,43.18,-70.43
2018-10-19 05:00,43.179584503,-70.426399231,43.18,-70.43